Hamilton, OH

9:42 AM EST on November 18, 2017 (GMT -0500)
Butler County Regional

Weather History for KHAO - January, 2013

Change the Weather History Date:

Monday, January 7, 2013

  Actual Average (KLUK) Record (KLUK)
Temperature  
Mean Temperature 28 °F -  
Max Temperature 41 °F 37 °F 69 °F (2008)
Min Temperature 15 °F 21 °F -5 °F (2014)
Degree Days  
Heating Degree Days 37    
Moisture  
Dew Point 19 °F    
Average Humidity 77    
Maximum Humidity 93    
Minimum Humidity 53    
Precipitation  
Precipitation 0.00 in - - ()
Sea Level Pressure  
Sea Level Pressure 30.42 in    
Wind  
Wind Speed 2 mph (South)    
Max Wind Speed 8 mph    
Max Gust Speed -    
Visibility 6 miles    
Events      
Averages and records for this station are not official NWS values.
T = Trace of Precipitation, MM = Missing Value Source: NWS Daily Summary

Daily Weather History Graph

Daily Weather History Graph

Search for Another Location

Airport or City:

Trip Planner

Search our weather history database for the weather conditions in past years. The results will help you decide how hot, cold, wet, or windy it might be!

Date:

Astronomy

Jan. 07, 2013 Rise Set
Actual Time 7:58 AM EST 5:31 PM EST
Civil Twilight 7:28 AM EST 6:00 PM EST
Nautical Twilight 6:54 AM EST 6:34 PM EST
Astronomical Twilight 6:22 AM EST 7:06 PM EST
Moon 3:21 AM EST (1/7) 1:41 PM EST (1/7)
Length of Visible Light 10h 32m
Length of Day
9h 32m
Waning Crescent, 23% of the Moon is Illuminated
Jan 7
Waning Crescent
Jan 11
New
Jan 18
First Quarter
Jan 26
Full
Feb 3
Last Quarter

Hourly Weather History & Observations

Time (EST) Temp. Windchill Dew Point Humidity Pressure Visibility Wind Dir Wind Speed Gust Speed Precip Events Conditions
12:53 AM 30.0 °F 26.5 °F 21.9 °F 72% 30.39 in 7.0 mi West 3.5 mph - N/A   Overcast
1:53 AM 28.0 °F - 21.9 °F 78% 30.40 in 7.0 mi Calm Calm - N/A   Overcast
2:53 AM 27.0 °F 23.0 °F 21.9 °F 81% 30.41 in 6.0 mi West 3.5 mph - N/A   Haze
3:53 AM 21.9 °F - 18.0 °F 85% 30.43 in 5.0 mi Calm Calm - N/A   Clear
4:53 AM 19.0 °F - 16.0 °F 88% 30.44 in 3.0 mi Calm Calm - N/A   Clear
5:53 AM 18.0 °F - 14.0 °F 84% 30.46 in 4.0 mi Calm Calm - N/A   Mist
6:51 AM 15.8 °F - 12.2 °F 86% 30.45 in 2.5 mi Calm Calm - N/A   Clear
6:53 AM 16.0 °F - 12.0 °F 84% 30.49 in 2.5 mi Calm Calm - N/A   Clear
7:01 AM 15.8 °F - 12.2 °F 86% 30.46 in 3.0 mi Calm Calm - N/A   Clear
7:40 AM 15.8 °F - 12.2 °F 86% 30.46 in 2.0 mi Calm Calm - N/A   Clear
7:53 AM 16.0 °F - 10.9 °F 81% 30.50 in 3.0 mi Calm Calm - N/A   Haze
8:03 AM 15.8 °F - 10.4 °F 79% 30.47 in 2.0 mi Calm Calm - N/A   Clear
8:53 AM 18.0 °F - 15.1 °F 88% 30.51 in 1.8 mi Calm Calm - N/A   Clear
9:05 AM 19.4 °F - 17.6 °F 93% 30.49 in 2.0 mi Calm Calm - N/A   Clear
9:53 AM 26.1 °F - 23.0 °F 88% 30.52 in 3.0 mi Calm Calm - N/A   Clear
10:53 AM 28.9 °F - 23.0 °F 78% 30.51 in 5.0 mi Calm Calm - N/A   Haze
11:53 AM 32.0 °F 26.4 °F 24.1 °F 73% 30.47 in 4.0 mi East 5.8 mph - N/A   Haze
12:53 PM 37.9 °F 32.1 °F 24.1 °F 57% 30.43 in 10.0 mi South 8.1 mph - N/A   Clear
1:53 PM 39.0 °F 33.4 °F 24.1 °F 55% 30.41 in 10.0 mi SSW 8.1 mph - N/A   Clear
2:53 PM 41.0 °F 39.0 °F 25.0 °F 53% 30.39 in 10.0 mi South 3.5 mph - N/A   Clear
3:53 PM 41.0 °F 38.0 °F 25.0 °F 53% 30.39 in 10.0 mi SSW 4.6 mph - N/A   Clear
4:53 PM 39.9 °F 35.8 °F 24.1 °F 53% 30.36 in 10.0 mi SSE 5.8 mph - N/A   Clear
5:53 PM 36.0 °F - 24.1 °F 62% 30.35 in 10.0 mi Calm Calm - N/A   Clear
6:53 PM 32.0 °F 28.7 °F 23.0 °F 69% 30.33 in 10.0 mi SSE 3.5 mph - N/A   Clear
7:53 PM 33.1 °F 30.0 °F 23.0 °F 66% 30.32 in 10.0 mi SSE 3.5 mph - N/A   Clear
8:53 PM 24.1 °F - 19.0 °F 81% 30.32 in 9.0 mi Calm Calm - N/A   Clear
9:53 PM 21.0 °F - 18.0 °F 88% 30.30 in 7.0 mi Calm Calm - N/A   Clear
10:53 PM 21.0 °F - 17.1 °F 85% 30.30 in 7.0 mi Calm Calm - N/A   Clear
11:53 PM 19.0 °F - 16.0 °F 88% 30.31 in 6.0 mi Calm Calm - N/A   Clear